| time (UTC) | temp C | wind direction | speed KPH | gust KPH | rain 1hr cm | rain 24hr cm | rain mn cm | humidity % | barometer mb |
| 20260503184923 | 19 | 67 | 3.2 | 4.8 | 0.00 | 0.03 | 0.03 | 42 | 1014.4 |
| 20260503184420 | 18 | 330 | 4.8 | 4.8 | 0.00 | 0.03 | 0.03 | 43 | 1014.4 |
| 20260503183916 | 18 | 288 | 6.4 | 9.7 | 0.00 | 0.03 | 0.03 | 44 | 1014.5 |
| 20260503183413 | 18 | 312 | 4.8 | 4.8 | 0.00 | 0.03 | 0.03 | 45 | 1014.5 |
| 20260503182910 | 18 | 324 | 4.8 | 12.9 | 0.00 | 0.03 | 0.03 | 48 | 1014.6 |
| 20260503182409 | 18 | 339 | 6.4 | 11.3 | 0.00 | 0.03 | 0.03 | 46 | 1014.6 |
| 20260503181906 | 18 | 358 | 3.2 | 4.8 | 0.00 | 0.03 | 0.03 | 43 | 1014.8 |
| 20260503181403 | 18 | 15 | 3.2 | 4.8 | 0.00 | 0.03 | 0.03 | 47 | 1014.9 |
| 20260503180859 | 18 | 23 | 1.6 | 3.2 | 0.00 | 0.03 | 0.03 | 48 | 1014.8 |
| 20260503180357 | 19 | 18 | 1.6 | 3.2 | 0.00 | 0.03 | 0.03 | 45 | 1014.8 |
| 20260503175853 | 18 | 32 | 1.6 | 3.2 | 0.00 | 0.03 | 0.03 | 45 | 1015.1 |
| 20260503175351 | 18 | 37 | 1.6 | 3.2 | 0.00 | 0.03 | 0.03 | 46 | 1015.1 |
| 20260503174847 | 17 | 27 | 0.0 | 1.6 | 0.00 | 0.03 | 0.03 | 48 | 1015.2 |
| 20260503174345 | 17 | 26 | 1.6 | 3.2 | 0.00 | 0.03 | 0.03 | 49 | 1015.2 |
| 20260503173845 | 18 | 29 | 1.6 | 3.2 | 0.00 | 0.03 | 0.03 | 48 | 1015.2 |
| 20260503173342 | 18 | 7 | 3.2 | 3.2 | 0.00 | 0.03 | 0.03 | 47 | 1015.2 |
| 20260503172838 | 17 | 27 | 0.0 | 3.2 | 0.00 | 0.03 | 0.03 | 47 | 1015.3 |
| 20260503172336 | 17 | 38 | 0.0 | 1.6 | 0.00 | 0.03 | 0.03 | 47 | 1015.4 |
| 20260503171832 | 17 | 27 | 1.6 | 1.6 | 0.00 | 0.03 | 0.03 | 50 | 1015.3 |
| 20260503171329 | 17 | 26 | 4.8 | 4.8 | 0.00 | 0.03 | 0.03 | 48 | 1015.4 |
| 20260503170827 | 17 | 24 | 1.6 | 3.2 | 0.00 | 0.03 | 0.03 | 49 | 1015.5 |
| 20260503170323 | 17 | 51 | 1.6 | 3.2 | 0.00 | 0.03 | 0.03 | 48 | 1015.5 |
| 20260503150715 | 15 | 28 | 1.6 | 3.2 | 0.00 | 0.03 | 0.03 | 59 | 1016.7 |
| 20260503150211 | 15 | 57 | 0.0 | 1.6 | 0.00 | 0.03 | 0.03 | 57 | 1016.7 |
| 20260503140136 | 13 | 47 | 0.0 | 1.6 | 0.00 | 0.03 | 0.03 | 68 | 1016.6 |
| 20260503131105 | 11 | 50 | 0.0 | 0.0 | 0.00 | 0.03 | 0.03 | 95 | 1016.3 |
| 20260503130603 | 11 | 48 | 0.0 | 0.0 | 0.00 | 0.03 | 0.03 | 96 | 1016.3 |
| 20260503110453 | 7 | 38 | 0.0 | 0.0 | 0.00 | 0.03 | 0.03 | 96 | 1015.0 |
| 20260503090338 | 9 | 30 | 1.6 | 1.6 | 0.18 | 0.03 | 0.03 | 96 | 1013.4 |
| 20260503081300 | 9 | 349 | 3.2 | 4.8 | 0.00 | 0.00 | 0.00 | 95 | 1013.2 |
| 20260503080756 | 9 | 350 | 3.2 | 3.2 | 0.00 | 0.00 | 0.00 | 94 | 1013.0 |
| 20260503080254 | 9 | 10 | 3.2 | 3.2 | 0.00 | 0.00 | 0.00 | 94 | 1012.8 |
| 20260503072730 | 9 | 28 | 1.6 | 1.6 | 0.00 | 0.00 | 0.00 | 91 | 1012.7 |
| 20260503072226 | 9 | 28 | 0.0 | 1.6 | 0.00 | 0.00 | 0.00 | 91 | 1012.5 |
| 20260503071723 | 9 | 41 | 0.0 | 1.6 | 0.00 | 0.00 | 0.00 | 91 | 1012.5 |
| 20260503071220 | 9 | 45 | 0.0 | 0.0 | 0.00 | 0.00 | 0.00 | 90 | 1012.1 |
| 20260503070717 | 9 | 45 | 0.0 | 0.0 | 0.00 | 0.00 | 0.00 | 90 | 1012.2 |
| 20260503070215 | 10 | 35 | 0.0 | 0.0 | 0.00 | 0.00 | 0.00 | 90 | 1012.3 |
| 20260503060139 | 11 | 356 | 4.8 | 8.0 | 0.00 | 0.00 | 0.00 | 90 | 1012.2 |
| 20260503054626 | 11 | 310 | 4.8 | 8.0 | 0.00 | 0.00 | 0.00 | 89 | 1012.2 |
| 20260503054123 | 11 | 293 | 6.4 | 8.0 | 0.00 | 0.00 | 0.00 | 90 | 1012.1 |
| 20260503053621 | 11 | 292 | 6.4 | 9.7 | 0.00 | 0.00 | 0.00 | 89 | 1012.0 |
| 20260503053120 | 11 | 322 | 4.8 | 8.0 | 0.00 | 0.00 | 0.00 | 89 | 1012.2 |
| 20260503052616 | 11 | 315 | 4.8 | 8.0 | 0.00 | 0.00 | 0.00 | 89 | 1011.9 |
| 20260503052112 | 11 | 283 | 8.0 | 9.7 | 0.00 | 0.00 | 0.00 | 89 | 1012.1 |
| 20260503051608 | 11 | 17 | 3.2 | 3.2 | 0.00 | 0.00 | 0.00 | 89 | 1012.1 |
| 20260503051106 | 11 | 301 | 6.4 | 8.0 | 0.00 | 0.00 | 0.00 | 89 | 1011.9 |
| 20260503050602 | 12 | 293 | 9.7 | 11.3 | 0.00 | 0.00 | 0.00 | 90 | 1011.8 |
| 20260503050059 | 12 | 315 | 4.8 | 8.0 | 0.00 | 0.00 | 0.00 | 90 | 1011.7 |
| 20260503045556 | 12 | 348 | 1.6 | 3.2 | 0.00 | 0.00 | 0.00 | 90 | 1011.6 |
| 20260503045053 | 12 | 32 | 1.6 | 3.2 | 0.00 | 0.00 | 0.00 | 90 | 1011.7 |
| 20260503044549 | 12 | 36 | 3.2 | 3.2 | 0.00 | 0.00 | 0.00 | 90 | 1011.7 |
| 20260503044047 | 12 | 28 | 1.6 | 3.2 | 0.00 | 0.00 | 0.00 | 90 | 1011.6 |
| 20260503043543 | 12 | 34 | 1.6 | 3.2 | 0.00 | 0.00 | 0.00 | 90 | 1011.4 |
| 20260503043040 | 12 | 22 | 1.6 | 3.2 | 0.00 | 0.00 | 0.00 | 90 | 1011.4 |
| 20260503042537 | 12 | 33 | 1.6 | 1.6 | 0.00 | 0.00 | 0.00 | 90 | 1011.4 |
| 20260503042033 | 12 | 30 | 1.6 | 3.2 | 0.00 | 0.00 | 0.00 | 90 | 1011.5 |
| 20260503041530 | 12 | 34 | 1.6 | 1.6 | 0.00 | 0.00 | 0.00 | 90 | 1011.5 |
| 20260503041028 | 12 | 29 | 1.6 | 3.2 | 0.00 | 0.00 | 0.00 | 90 | 1011.5 |
| 20260503040525 | 12 | 303 | 6.4 | 8.0 | 0.00 | 0.00 | 0.00 | 90 | 1011.3 |
| 20260503040022 | 12 | 32 | 1.6 | 1.6 | 0.00 | 1.19 | 1.19 | 90 | 1011.2 |
| 20260503035519 | 12 | 32 | 1.6 | 1.6 | 0.00 | 1.19 | 1.19 | 89 | 1011.2 |
| 20260503035017 | 12 | 39 | 0.0 | 0.0 | 0.00 | 1.19 | 1.19 | 89 | 1011.1 |
| 20260503034514 | 12 | 39 | 0.0 | 0.0 | 0.00 | 1.19 | 1.19 | 89 | 1011.1 |
| 20260503034010 | 12 | 39 | 0.0 | 0.0 | 0.00 | 1.19 | 1.19 | 89 | 1011.2 |
| 20260503033508 | 12 | 39 | 0.0 | 0.0 | 0.00 | 1.19 | 1.19 | 89 | 1011.2 |
| 20260503033006 | 12 | 39 | 0.0 | 0.0 | 0.00 | 1.19 | 1.19 | 89 | 1011.2 |
| 20260503032504 | 12 | 39 | 0.0 | 0.0 | 0.00 | 1.19 | 1.19 | 89 | 1011.2 |
| 20260503032002 | 12 | 39 | 0.0 | 0.0 | 0.00 | 1.19 | 1.19 | 89 | 1011.2 |
| 20260503031459 | 12 | 38 | 0.0 | 0.0 | 0.00 | 1.19 | 1.19 | 89 | 1011.4 |
| 20260503030955 | 12 | 43 | 0.0 | 0.0 | 0.00 | 1.19 | 1.19 | 89 | 1011.2 |
| 20260503030452 | 12 | 65 | 3.2 | 4.8 | 0.00 | 1.19 | 1.19 | 89 | 1011.0 |
| 20260503025949 | 12 | 87 | 3.2 | 4.8 | 0.00 | 1.19 | 1.19 | 89 | 1010.8 |
| 20260503025446 | 12 | 51 | 0.0 | 1.6 | 0.00 | 1.19 | 1.19 | 89 | 1010.9 |
| 20260503024943 | 12 | 12 | 1.6 | 4.8 | 0.00 | 1.19 | 1.19 | 89 | 1010.9 |
| 20260503024440 | 12 | 275 | 8.0 | 9.7 | 0.00 | 1.19 | 1.19 | 89 | 1010.7 |
| 20260503023937 | 12 | 301 | 6.4 | 9.7 | 0.00 | 1.19 | 1.19 | 89 | 1010.8 |
| 20260503023434 | 12 | 298 | 6.4 | 8.0 | 0.00 | 1.19 | 1.19 | 89 | 1010.7 |
| 20260503022931 | 12 | 306 | 4.8 | 8.0 | 0.00 | 1.19 | 1.19 | 89 | 1010.8 |
| 20260503022426 | 12 | 258 | 6.4 | 8.0 | 0.00 | 1.19 | 1.19 | 88 | 1010.9 |
| 20260503021922 | 12 | 304 | 6.4 | 9.7 | 0.00 | 1.19 | 1.19 | 88 | 1011.1 |
| 20260503021418 | 13 | 321 | 6.4 | 9.7 | 0.13 | 1.19 | 1.19 | 87 | 1011.1 |
| 20260503020916 | 13 | 315 | 6.4 | 8.0 | 0.13 | 1.19 | 1.19 | 86 | 1010.8 |
| 20260503020414 | 13 | 306 | 6.4 | 8.0 | 0.18 | 1.17 | 1.17 | 86 | 1011.2 |
| 20260503015909 | 13 | 290 | 9.7 | 11.3 | 0.18 | 1.17 | 1.17 | 84 | 1010.9 |
| 20260503015407 | 13 | 280 | 11.3 | 12.9 | 0.00 | 1.14 | 1.14 | 84 | 1011.0 |
| 20260503014902 | 13 | 277 | 8.0 | 9.7 | 0.00 | 1.14 | 1.14 | 84 | 1010.9 |
| 20260503014400 | 13 | 284 | 9.7 | 11.3 | 0.00 | 1.14 | 1.14 | 83 | 1010.6 |
| 20260503013858 | 13 | 4 | 3.2 | 3.2 | 0.00 | 1.14 | 1.14 | 83 | 1010.3 |
| 20260503013354 | 13 | 35 | 0.0 | 0.0 | 0.00 | 1.14 | 1.14 | 83 | 1010.1 |
| 20260503012851 | 13 | 35 | 0.0 | 0.0 | 0.00 | 1.14 | 1.14 | 84 | 1009.9 |
| 20260503012349 | 13 | 33 | 1.6 | 3.2 | 0.00 | 1.14 | 1.14 | 84 | 1009.7 |
| 20260503011846 | 13 | 49 | 0.0 | 0.0 | 0.00 | 1.14 | 1.14 | 84 | 1009.4 |
| 20260503011343 | 13 | 49 | 0.0 | 0.0 | 0.00 | 1.14 | 1.14 | 84 | 1009.3 |
| 20260503010839 | 13 | 49 | 0.0 | 0.0 | 0.00 | 1.14 | 1.14 | 84 | 1009.4 |
| 20260503010336 | 13 | 49 | 0.0 | 0.0 | 0.00 | 1.14 | 1.14 | 84 | 1009.3 |
| 20260503005833 | 13 | 49 | 0.0 | 0.0 | 0.00 | 1.14 | 1.14 | 84 | 1009.1 |
| 20260503005331 | 13 | 49 | 0.0 | 0.0 | 0.00 | 1.14 | 1.14 | 84 | 1009.1 |
| 20260503004826 | 13 | 50 | 0.0 | 0.0 | 0.00 | 1.14 | 1.14 | 84 | 1009.0 |
| 20260503004325 | 13 | 49 | 0.0 | 0.0 | 0.00 | 1.14 | 1.14 | 83 | 1008.9 |
| 20260503003822 | 13 | 49 | 0.0 | 0.0 | 0.00 | 1.14 | 1.14 | 83 | 1009.1 |
| 20260503003318 | 13 | 49 | 0.0 | 0.0 | 0.00 | 1.14 | 1.14 | 83 | 1008.8 |
| 20260503002815 | 13 | 49 | 0.0 | 0.0 | 0.00 | 1.14 | 1.14 | 83 | 1008.7 |
| 20260503002313 | 13 | 49 | 0.0 | 0.0 | 0.00 | 1.14 | 1.14 | 83 | 1008.7 |
| 20260503001809 | 13 | 49 | 0.0 | 0.0 | 0.00 | 1.14 | 1.14 | 83 | 1008.4 |
| 20260503001305 | 13 | 49 | 0.0 | 0.0 | 0.00 | 1.14 | 1.14 | 82 | 1008.4 |
| 20260503000803 | 13 | 49 | 0.0 | 0.0 | 0.00 | 1.14 | 1.14 | 82 | 1008.3 |
| 20260503000300 | 13 | 49 | 0.0 | 0.0 | 0.00 | 1.14 | 1.14 | 81 | 1008.2 |
| 20260502235757 | 14 | 49 | 0.0 | 0.0 | 0.00 | 1.14 | 1.14 | 81 | 1008.4 |
| 20260502235255 | 14 | 49 | 0.0 | 0.0 | 0.00 | 1.14 | 1.14 | 80 | 1008.2 |
| 20260502234751 | 14 | 49 | 0.0 | 0.0 | 0.00 | 1.14 | 1.14 | 79 | 1008.2 |
| 20260502234248 | 14 | 49 | 0.0 | 0.0 | 0.00 | 1.14 | 1.14 | 79 | 1008.1 |
| 20260502233744 | 14 | 49 | 0.0 | 1.6 | 0.00 | 1.14 | 1.14 | 79 | 1008.2 |
| 20260502233241 | 15 | 49 | 1.6 | 1.6 | 0.00 | 1.14 | 1.14 | 78 | 1007.9 |
| 20260502232737 | 15 | 51 | 0.0 | 1.6 | 0.00 | 1.14 | 1.14 | 78 | 1007.9 |
| 20260502232234 | 15 | 60 | 1.6 | 1.6 | 0.00 | 1.14 | 1.14 | 78 | 1007.7 |
| 20260502231730 | 15 | 60 | 1.6 | 1.6 | 0.00 | 1.14 | 1.14 | 77 | 1007.8 |
| 20260502231228 | 15 | 60 | 1.6 | 1.6 | 0.00 | 1.14 | 1.14 | 77 | 1007.8 |
| 20260502230727 | 15 | 60 | 0.0 | 1.6 | 0.00 | 1.14 | 1.14 | 76 | 1007.6 |
| 20260502230225 | 15 | 60 | 0.0 | 0.0 | 0.00 | 1.14 | 1.14 | 76 | 1007.7 |
| 20260502225720 | 15 | 60 | 0.0 | 0.0 | 0.00 | 1.14 | 1.14 | 75 | 1007.6 |
| 20260502225218 | 15 | 61 | 1.6 | 1.6 | 0.00 | 1.14 | 1.14 | 75 | 1007.7 |
| 20260502224714 | 15 | 52 | 1.6 | 1.6 | 0.00 | 1.14 | 1.14 | 76 | 1007.8 |
| 20260502224211 | 15 | 57 | 1.6 | 1.6 | 0.00 | 1.14 | 1.14 | 76 | 1007.6 |
| 20260502223708 | 15 | 61 | 1.6 | 1.6 | 0.00 | 1.14 | 1.14 | 74 | 1007.7 |
| 20260502223206 | 15 | 49 | 0.0 | 1.6 | 0.00 | 1.14 | 1.14 | 75 | 1007.5 |
| 20260502222704 | 15 | 49 | 0.0 | 1.6 | 0.00 | 1.14 | 1.14 | 75 | 1007.6 |
| 20260502222200 | 15 | 57 | 1.6 | 3.2 | 0.00 | 1.14 | 1.14 | 73 | 1007.4 |
| 20260502221656 | 16 | 71 | 3.2 | 4.8 | 0.00 | 1.14 | 1.14 | 73 | 1007.7 |
| 20260502221153 | 16 | 75 | 3.2 | 3.2 | 0.00 | 1.14 | 1.14 | 73 | 1007.6 |
| 20260502220649 | 16 | 48 | 0.0 | 8.0 | 0.00 | 1.14 | 1.14 | 74 | 1007.8 |
| 20260502220145 | 15 | 45 | 0.0 | 1.6 | 0.00 | 1.14 | 1.14 | 75 | 1007.9 |
| 20260502215643 | 15 | 56 | 1.6 | 1.6 | 0.00 | 1.14 | 1.14 | 74 | 1007.8 |
| 20260502215139 | 15 | 57 | 1.6 | 1.6 | 0.00 | 1.14 | 1.14 | 73 | 1007.9 |
| 20260502214636 | 16 | 66 | 1.6 | 1.6 | 0.00 | 1.14 | 1.14 | 74 | 1007.9 |
| 20260502214128 | 15 | 44 | 0.0 | 3.2 | 0.00 | 1.14 | 1.14 | 74 | 1007.6 |
| 20260502213625 | 15 | 73 | 1.6 | 4.8 | 0.00 | 1.14 | 1.14 | 74 | 1007.7 |
| 20260502213122 | 15 | 45 | 0.0 | 3.2 | 0.00 | 1.14 | 1.14 | 75 | 1007.5 |
| 20260502212621 | 15 | 52 | 1.6 | 3.2 | 0.00 | 1.14 | 1.14 | 74 | 1007.5 |
| 20260502212119 | 15 | 68 | 3.2 | 3.2 | 0.00 | 1.14 | 1.14 | 75 | 1007.4 |
| 20260502211614 | 15 | 78 | 3.2 | 4.8 | 0.00 | 1.14 | 1.14 | 74 | 1007.3 |
| 20260502211112 | 15 | 65 | 3.2 | 4.8 | 0.00 | 1.14 | 1.14 | 74 | 1007.5 |
| 20260502210609 | 15 | 57 | 1.6 | 3.2 | 0.00 | 1.14 | 1.14 | 73 | 1007.4 |
| 20260502210106 | 15 | 83 | 4.8 | 4.8 | 0.00 | 1.14 | 1.14 | 76 | 1007.4 |
| 20260502205602 | 15 | 45 | 0.0 | 1.6 | 0.00 | 1.14 | 1.14 | 77 | 1007.7 |
| 20260502205059 | 15 | 54 | 1.6 | 1.6 | 0.00 | 1.14 | 1.14 | 77 | 1007.5 |
| 20260502204556 | 15 | 46 | 0.0 | 1.6 | 0.00 | 1.14 | 1.14 | 77 | 1007.5 |
| 20260502204054 | 15 | 48 | 1.6 | 3.2 | 0.00 | 1.14 | 1.14 | 78 | 1007.6 |
| 20260502203550 | 15 | 55 | 1.6 | 3.2 | 0.00 | 1.14 | 1.14 | 79 | 1007.7 |
| 20260502203042 | 14 | 74 | 3.2 | 4.8 | 0.00 | 1.14 | 1.14 | 80 | 1007.6 |
| 20260502202538 | 15 | 38 | 1.6 | 3.2 | 0.00 | 1.14 | 1.14 | 82 | 1007.6 |
| 20260502202036 | 14 | 62 | 1.6 | 3.2 | 0.00 | 1.14 | 1.14 | 81 | 1007.7 |
| 20260502201532 | 14 | 65 | 0.0 | 1.6 | 0.00 | 1.14 | 1.14 | 82 | 1007.7 |
| 20260502201029 | 14 | 75 | 3.2 | 3.2 | 0.00 | 1.14 | 1.14 | 82 | 1008.0 |
| 20260502200524 | 14 | 58 | 1.6 | 1.6 | 0.00 | 1.14 | 1.14 | 82 | 1007.8 |
| 20260502200023 | 14 | 35 | 1.6 | 3.2 | 0.00 | 1.14 | 1.14 | 82 | 1008.1 |
| 20260502195521 | 14 | 80 | 3.2 | 4.8 | 0.00 | 1.14 | 1.14 | 82 | 1008.2 |
| 20260502195015 | 14 | 44 | 0.0 | 0.0 | 0.00 | 1.14 | 1.14 | 83 | 1008.2 |
| 20260502194513 | 15 | 51 | 0.0 | 1.6 | 0.00 | 1.14 | 1.14 | 83 | 1008.0 |
| 20260502194009 | 15 | 57 | 1.6 | 1.6 | 0.00 | 1.14 | 1.14 | 84 | 1007.9 |
| 20260502193506 | 14 | 50 | 1.6 | 3.2 | 0.00 | 1.14 | 1.14 | 84 | 1008.0 |
| 20260502193003 | 14 | 48 | 1.6 | 1.6 | 0.00 | 1.14 | 1.14 | 84 | 1008.1 |
| 20260502192458 | 14 | 46 | 0.0 | 1.6 | 0.00 | 1.14 | 1.14 | 85 | 1008.1 |
| 20260502191956 | 13 | 57 | 1.6 | 4.8 | 0.00 | 1.14 | 1.14 | 84 | 1008.2 |
| 20260502191453 | 13 | 50 | 1.6 | 3.2 | 0.00 | 1.14 | 1.14 | 85 | 1008.1 |
| 20260502190951 | 14 | 80 | 1.6 | 3.2 | 0.00 | 1.14 | 1.14 | 86 | 1008.2 |
| 20260502190448 | 13 | 43 | 0.0 | 1.6 | 0.00 | 1.14 | 1.14 | 86 | 1008.5 |
| 20260502185944 | 13 | 59 | 1.6 | 3.2 | 0.00 | 1.14 | 1.14 | 86 | 1008.3 |
| 20260502185440 | 13 | 41 | 0.0 | 3.2 | 0.00 | 1.14 | 1.14 | 86 | 1008.3 |